K8MUD Weather Reports


Display with metric or nautical units.
time (UTC)temp
F
wind
direction
speed
MPH
gust
MPH
rain 1hr
in
rain 24hr
in
rain mn
in
humidity
%
barometer
mb
20260508050003 49 289 6.0 13.0 0.03 0.03 0.03 75 1011.9
20260508045852 49 295 8.0 15.0 0.03 0.03 0.03 74 1011.9
20260508045503 50 295 8.0 15.0 0.02 0.02 0.02 72 1012.0
20260508045352 50 289 7.0 15.0 0.01 0.01 0.01 71 1011.9
20260508045003 51 284 6.0 15.0 0.01 0.01 0.01 69 1011.9
20260508044852 51 272 5.0 11.0 0.01 0.01 0.01 68 1011.7
20260508044503 51 262 4.0 10.0 0.00 0.00 0.00 66 1011.8
20260508044352 51 262 3.0 8.0 0.00 0.00 0.00 64 1011.5
20260508044003 51 244 3.0 6.0 0.00 0.00 0.00 63 1011.4
20260508043852 51 240 2.0 4.0 0.00 0.00 0.00 63 1011.4
20260508043502 51 238 2.0 5.0 0.00 0.00 0.00 63 1011.3
20260508043352 51 235 2.0 5.0 0.00 0.00 0.00 63 1011.3
20260508043004 51 226 2.0 5.0 0.00 0.00 0.00 63 1011.3
20260508042851 51 220 2.0 5.0 0.00 0.00 0.00 63 1011.2
20260508042524 51 211 2.0 5.0 0.00 0.00 0.00 63 1011.3
20260508042351 51 210 2.0 4.0 0.00 0.00 0.00 62 1011.3
20260508042003 51 207 2.0 4.0 0.00 0.00 0.00 62 1011.3
20260508041851 51 205 2.0 4.0 0.00 0.00 0.00 62 1011.1
20260508041524 51 201 2.0 5.0 0.00 0.00 0.00 61 1011.2
20260508041351 51 200 2.0 5.0 0.00 0.00 0.00 60 1011.2
20260508041004 51 199 2.0 5.0 0.00 0.00 0.00 58 1011.1
20260508040851 51 199 1.0 5.0 0.00 0.00 0.00 58 1011.2
20260508040524 51 196 1.0 3.0 0.00 0.00 0.00 58 1011.2
20260508040351 51 196 1.0 2.0 0.00 0.00 0.00 58 1011.1
20260508040024 51 196 1.0 4.0 0.00 0.00 0.00 58 1011.3
20260508035851 51 195 2.0 4.0 0.00 0.00 0.00 57 1011.3
20260508035503 52 217 2.0 7.0 0.00 0.00 0.00 57 1011.2
20260508035351 52 235 2.0 7.0 0.00 0.00 0.00 57 1011.2
20260508035004 52 253 2.0 7.0 0.00 0.00 0.00 56 1011.2
20260508034851 52 265 2.0 7.0 0.00 0.00 0.00 56 1011.2
20260508034524 52 271 2.0 4.0 0.00 0.00 0.00 55 1011.2
20260508034351 52 271 2.0 4.0 0.00 0.00 0.00 56 1011.2
20260508034003 52 271 1.0 4.0 0.00 0.00 0.00 55 1011.3
20260508033851 52 271 1.0 4.0 0.00 0.00 0.00 55 1011.3
20260508033524 52 271 1.0 4.0 0.00 0.00 0.00 55 1011.4
20260508033351 52 271 1.0 3.0 0.00 0.00 0.00 56 1011.5
20260508033003 52 271 1.0 4.0 0.00 0.00 0.00 55 1011.4
20260508032851 52 271 2.0 4.0 0.00 0.00 0.00 54 1011.5
20260508032504 52 272 2.0 4.0 0.00 0.00 0.00 54 1011.5
20260508032351 52 272 1.0 4.0 0.00 0.00 0.00 54 1011.6
20260508032024 52 272 1.0 3.0 0.00 0.00 0.00 54 1011.4
20260508031851 52 272 1.0 3.0 0.00 0.00 0.00 54 1011.5
20260508031503 52 272 1.0 3.0 0.00 0.00 0.00 54 1011.5
20260508031350 52 272 1.0 3.0 0.00 0.00 0.00 54 1011.5
20260508031004 52 272 1.0 3.0 0.00 0.00 0.00 54 1011.6
20260508030850 52 272 1.0 3.0 0.00 0.00 0.00 54 1011.5
20260508030503 52 272 1.0 3.0 0.00 0.00 0.00 54 1011.5
20260508030350 52 272 0.0 2.0 0.00 0.00 0.00 54 1011.5
20260508030003 52 272 0.0 2.0 0.00 0.00 0.00 54 1011.4
20260508025850 52 272 0.0 2.0 0.00 0.00 0.00 54 1011.4
20260508025504 52 272 0.0 1.0 0.00 0.00 0.00 53 1011.4
20260508025350 52 272 0.0 2.0 0.00 0.00 0.00 53 1011.3
20260508025003 52 272 1.0 3.0 0.00 0.00 0.00 53 1011.4
20260508024850 52 272 1.0 3.0 0.00 0.00 0.00 53 1011.3
20260508024524 52 272 1.0 3.0 0.00 0.00 0.00 53 1011.3
20260508024350 52 272 1.0 3.0 0.00 0.00 0.00 52 1011.3
20260508024004 52 272 1.0 3.0 0.00 0.00 0.00 52 1011.2
20260508023850 52 272 2.0 3.0 0.00 0.00 0.00 52 1011.2
20260508023503 52 272 2.0 4.0 0.00 0.00 0.00 52 1011.3
20260508023350 52 272 2.0 4.0 0.00 0.00 0.00 52 1011.2
20260508023024 52 272 2.0 4.0 0.00 0.00 0.00 52 1011.2
20260508022850 52 271 2.0 4.0 0.00 0.00 0.00 53 1011.2
20260508022503 52 271 2.0 4.0 0.00 0.00 0.00 53 1011.2
20260508022350 52 271 2.0 4.0 0.00 0.00 0.00 53 1011.2
20260508022004 52 271 2.0 4.0 0.00 0.00 0.00 53 1011.2
20260508021850 52 271 2.0 4.0 0.00 0.00 0.00 53 1011.2
20260508021524 52 271 2.0 6.0 0.00 0.00 0.00 52 1011.1
20260508021349 52 271 3.0 6.0 0.00 0.00 0.00 52 1011.1
20260508021004 52 274 2.0 6.0 0.00 0.00 0.00 52 1011.2
20260508020849 52 277 3.0 6.0 0.00 0.00 0.00 52 1011.2
20260508020503 52 282 3.0 6.0 0.00 0.00 0.00 52 1011.1
20260508020349 52 287 3.0 6.0 0.00 0.00 0.00 52 1011.2
20260508020003 52 289 2.0 6.0 0.00 0.00 0.00 53 1011.3
20260508015849 52 288 3.0 6.0 0.00 0.00 0.00 52 1011.1
20260508015504 52 281 3.0 7.0 0.00 0.00 0.00 52 1011.2
20260508015349 52 276 3.0 7.0 0.00 0.00 0.00 52 1011.3
20260508015003 52 276 4.0 8.0 0.00 0.00 0.00 52 1011.2
20260508014849 52 280 4.0 8.0 0.00 0.00 0.00 52 1011.2
20260508014503 52 291 4.0 8.0 0.00 0.00 0.00 52 1011.2
20260508014349 52 294 4.0 8.0 0.00 0.00 0.00 52 1011.1
20260508014004 53 296 4.0 8.0 0.00 0.00 0.00 52 1011.1
20260508013849 53 295 4.0 8.0 0.00 0.00 0.00 52 1011.0
20260508013503 53 287 4.0 8.0 0.00 0.00 0.00 52 1011.1
20260508013349 53 286 4.0 10.0 0.00 0.00 0.00 52 1011.1
20260508013004 53 291 5.0 11.0 0.00 0.00 0.00 52 1011.1
20260508012849 53 287 6.0 13.0 0.00 0.00 0.00 52 1011.2
20260508012503 54 284 5.0 13.0 0.00 0.00 0.00 52 1011.1
20260508012349 54 284 5.0 13.0 0.00 0.00 0.00 51 1011.0
20260508012003 54 275 4.0 13.0 0.00 0.00 0.00 50 1011.1
20260508011848 54 276 4.0 11.0 0.00 0.00 0.00 48 1010.9
20260508011504 54 279 4.0 11.0 0.00 0.00 0.00 47 1011.0
20260508011348 54 278 4.0 11.0 0.00 0.00 0.00 48 1010.9
20260508011004 54 278 3.0 11.0 0.00 0.00 0.00 48 1010.8
20260508010848 54 279 3.0 6.0 0.00 0.00 0.00 48 1010.8
20260508010504 54 280 4.0 10.0 0.00 0.00 0.00 48 1010.7
20260508010348 54 284 4.0 10.0 0.00 0.00 0.00 47 1010.6
20260508010004 54 291 4.0 10.0 0.00 0.00 0.00 47 1010.6
20260508005848 54 294 3.0 10.0 0.00 0.00 0.00 47 1010.5
20260508005503 54 303 2.0 8.0 0.00 0.00 0.00 46 1010.6
20260508005348 54 306 2.0 8.0 0.00 0.00 0.00 46 1010.6
20260508005004 54 304 2.0 4.0 0.00 0.00 0.00 46 1010.6
20260508004848 54 305 2.0 8.0 0.00 0.00 0.00 47 1010.5
20260508004503 54 293 3.0 8.0 0.00 0.00 0.00 47 1010.6
20260508004348 54 295 3.0 8.0 0.00 0.00 0.00 47 1010.5
20260508004003 54 292 3.0 8.0 0.00 0.00 0.00 46 1010.5
20260508003848 54 288 3.0 7.0 0.00 0.00 0.00 45 1010.5
20260508003501 54 294 3.0 7.0 0.00 0.00 0.00 46 1010.4
20260508003318 54 287 3.0 8.0 0.00 0.00 0.00 46 1010.5
20260508003001 54 283 3.0 10.0 0.00 0.00 0.00 46 1010.5
20260508002818 54 282 4.0 10.0 0.00 0.00 0.00 46 1010.5
20260508002501 54 287 4.0 10.0 0.00 0.00 0.00 45 1010.5
20260508002318 55 289 4.0 10.0 0.00 0.00 0.00 45 1010.5
20260508002001 55 291 4.0 9.0 0.00 0.00 0.00 45 1010.6
20260508001818 55 292 4.0 12.0 0.00 0.00 0.00 44 1010.6
20260508001501 55 283 5.0 12.0 0.00 0.00 0.00 44 1010.4
20260508001318 55 281 5.0 12.0 0.00 0.00 0.00 43 1010.4
20260508001001 55 279 6.0 12.0 0.00 0.00 0.00 44 1010.5
20260508000817 55 277 7.0 11.0 0.00 0.00 0.00 45 1010.4
20260508000501 55 280 7.0 11.0 0.00 0.00 0.00 44 1010.5
20260508000319 55 279 7.0 13.0 0.00 0.00 0.00 44 1010.6
20260508000001 55 280 6.0 13.0 0.00 0.00 0.00 44 1010.4
20260507235817 55 280 5.0 13.0 0.00 0.00 0.00 44 1010.5
20260507235501 56 286 5.0 13.0 0.00 0.00 0.00 44 1010.5
20260507235317 56 286 5.0 12.0 0.00 0.00 0.00 44 1010.4
20260507235001 56 280 6.0 14.0 0.00 0.00 0.00 44 1010.4
20260507234817 56 279 8.0 15.0 0.00 0.00 0.00 44 1010.4
20260507234501 56 277 8.0 15.0 0.00 0.00 0.00 42 1010.3
20260507234317 56 277 9.0 15.0 0.00 0.00 0.00 43 1010.3
20260507234001 56 280 10.0 18.0 0.00 0.00 0.00 42 1010.3
20260507233817 56 278 9.0 18.0 0.00 0.00 0.00 42 1010.3
20260507233501 56 270 10.0 18.0 0.00 0.00 0.00 42 1010.3
20260507233317 56 268 10.0 18.0 0.00 0.00 0.00 42 1010.3
20260507233001 57 264 9.0 17.0 0.00 0.00 0.00 42 1010.4
20260507232817 57 261 8.0 17.0 0.00 0.00 0.00 42 1010.4
20260507232501 57 265 8.0 17.0 0.00 0.00 0.00 42 1010.3
20260507232317 57 266 8.0 14.0 0.00 0.00 0.00 43 1010.3
20260507232001 57 269 8.0 14.0 0.00 0.00 0.00 43 1010.3
20260507231817 57 275 7.0 14.0 0.00 0.00 0.00 43 1010.3
20260507231501 57 283 7.0 14.0 0.00 0.00 0.00 43 1010.4
20260507231317 57 283 5.0 12.0 0.00 0.00 0.00 43 1010.3
20260507231001 57 277 6.0 12.0 0.00 0.00 0.00 42 1010.3
20260507230817 57 269 6.0 12.0 0.00 0.00 0.00 43 1010.3
20260507230502 57 265 6.0 12.0 0.00 0.00 0.00 45 1010.3
20260507230316 57 263 6.0 12.0 0.00 0.00 0.00 45 1010.3
20260507230022 57 266 7.0 16.0 0.00 0.00 0.00 49 1010.4
20260507225816 57 270 7.0 16.0 0.00 0.00 0.00 43 1010.4
20260507225501 56 272 7.0 16.0 0.00 0.00 0.00 43 1010.5
20260507225316 56 281 6.0 16.0 0.00 0.00 0.00 43 1010.5
20260507225023 56 286 6.0 13.0 0.00 0.00 0.00 43 1010.6
20260507224816 56 288 6.0 13.0 0.00 0.00 0.00 42 1010.6
20260507224501 56 286 7.0 12.0 0.00 0.00 0.00 42 1010.5
20260507224316 56 284 8.0 14.0 0.00 0.00 0.00 42 1010.5
20260507224001 56 285 9.0 15.0 0.00 0.00 0.00 42 1010.6
20260507223816 56 284 9.0 15.0 0.00 0.00 0.00 42 1010.6
20260507223502 56 281 10.0 21.0 0.00 0.00 0.00 42 1010.5
20260507223316 57 282 10.0 21.0 0.00 0.00 0.00 42 1010.6
20260507223001 57 281 10.0 21.0 0.00 0.00 0.00 43 1010.6
20260507222816 56 280 9.0 21.0 0.00 0.00 0.00 46 1010.6
20260507222501 56 279 9.0 19.0 0.00 0.00 0.00 45 1010.7
20260507222316 56 277 8.0 19.0 0.00 0.00 0.00 41 1010.6
20260507222002 56 281 7.0 17.0 0.00 0.00 0.00 42 1010.6
20260507221816 56 285 7.0 14.0 0.00 0.00 0.00 42 1010.5
20260507221501 56 288 7.0 16.0 0.00 0.00 0.00 42 1010.5
20260507221316 56 287 8.0 16.0 0.00 0.00 0.00 40 1010.6
20260507221001 56 285 9.0 18.0 0.00 0.00 0.00 41 1010.4
20260507220816 56 291 10.0 20.0 0.00 0.00 0.00 41 1010.5
20260507220522 56 292 9.0 20.0 0.00 0.00 0.00 42 1010.5
20260507220315 56 297 9.0 20.0 0.00 0.00 0.00 42 1010.5
20260507220002 56 293 7.0 20.0 0.00 0.00 0.00 41 1010.4
20260507215815 56 289 7.0 20.0 0.00 0.00 0.00 41 1010.5
20260507215501 56 291 7.0 13.0 0.00 0.00 0.00 41 1010.4
20260507215315 56 287 7.0 13.0 0.00 0.00 0.00 42 1010.4
20260507215001 57 290 7.0 13.0 0.00 0.00 0.00 40 1010.5
20260507214815 57 290 7.0 13.0 0.00 0.00 0.00 40 1010.4
20260507214502 57 290 8.0 13.0 0.00 0.00 0.00 40 1010.5
20260507214315 57 297 7.0 13.0 0.00 0.00 0.00 40 1010.5
20260507214001 57 305 8.0 13.0 0.00 0.00 0.00 40 1010.4
20260507213815 57 295 8.0 13.0 0.00 0.00 0.00 40 1010.5
20260507213502 57 283 7.0 14.0 0.00 0.00 0.00 40 1010.4
20260507213315 58 269 7.0 14.0 0.00 0.00 0.00 39 1010.3
20260507213023 57 256 7.0 16.0 0.00 0.00 0.00 40 1010.2
20260507212815 57 263 8.0 16.0 0.00 0.00 0.00 40 1010.3
20260507212501 57 271 8.0 16.0 0.00 0.00 0.00 41 1010.3
20260507212315 57 279 8.0 16.0 0.00 0.00 0.00 40 1010.4
20260507212001 57 287 8.0 14.0 0.00 0.00 0.00 41 1010.5
20260507211815 56 295 8.0 15.0 0.00 0.00 0.00 41 1010.5
20260507211502 56 301 8.0 16.0 0.00 0.00 0.00 42 1010.4
20260507211315 56 302 8.0 16.0 0.00 0.00 0.00 40 1010.5
20260507211001 56 299 9.0 16.0 0.00 0.00 0.00 40 1010.5
20260507210815 56 293 9.0 16.0 0.00 0.00 0.00 41 1010.5
20260507210522 56 286 9.0 16.0 0.00 0.00 0.00 41 1010.6
20260507210314 56 290 10.0 17.0 0.00 0.00 0.00 41 1010.5
20260507210002 56 291 9.0 17.0 0.00 0.00 0.00 40 1010.5
20260507205814 56 297 10.0 18.0 0.00 0.00 0.00 40 1010.5
20260507205502 56 306 10.0 18.0 0.00 0.00 0.00 39 1010.6
20260507205314 56 305 10.0 18.0 0.00 0.00 0.00 40 1010.6
20260507205002 56 304 10.0 18.0 0.00 0.00 0.00 39 1010.6
20260507204814 56 300 10.0 18.0 0.00 0.00 0.00 40 1010.6
20260507204522 56 291 10.0 20.0 0.00 0.00 0.00 40 1010.5
20260507204314 56 285 11.0 20.0 0.00 0.00 0.00 40 1010.5
20260507204001 56 277 11.0 24.0 0.00 0.00 0.00 40 1010.5
20260507203814 56 278 11.0 24.0 0.00 0.00 0.00 40 1010.7
20260507203502 56 283 10.0 24.0 0.00 0.00 0.00 39 1010.6
20260507203314 56 283 10.0 24.0 0.00 0.00 0.00 40 1010.6
20260507203002 56 293 10.0 23.0 0.00 0.00 0.00 40 1010.5
20260507202814 56 294 11.0 23.0 0.00 0.00 0.00 39 1010.6
20260507202502 57 299 11.0 23.0 0.00 0.00 0.00 39 1010.5
20260507202314 57 299 12.0 23.0 0.00 0.00 0.00 38 1010.6
20260507202003 57 296 11.0 19.0 0.00 0.00 0.00 38 1010.6
20260507201814 58 291 10.0 19.0 0.00 0.00 0.00 37 1010.5
20260507201502 58 279 9.0 18.0 0.00 0.00 0.00 37 1010.6
20260507201314 58 271 9.0 20.0 0.00 0.00 0.00 38 1010.6
20260507201023 58 267 9.0 20.0 0.00 0.00 0.00 40 1010.5
20260507200814 58 265 9.0 20.0 0.00 0.00 0.00 40 1010.5
20260507200502 58 266 9.0 20.0 0.00 0.00 0.00 39 1010.6
20260507200314 58 276 9.0 21.0 0.00 0.00 0.00 41 1010.5
20260507200022 57 286 10.0 21.0 0.00 0.00 0.00 41 1010.5
20260507195814 57 295 10.0 21.0 0.00 0.00 0.00 41 1010.5
20260507195502 57 294 10.0 21.0 0.00 0.00 0.00 40 1010.5
20260507195314 57 288 10.0 18.0 0.00 0.00 0.00 41 1010.5
20260507195002 57 284 10.0 20.0 0.00 0.00 0.00 41 1010.6
20260507194813 57 279 10.0 20.0 0.00 0.00 0.00 41 1010.6
20260507194502 57 279 10.0 20.0 0.00 0.00 0.00 40 1010.6
20260507194313 58 280 8.0 20.0 0.00 0.00 0.00 41 1010.6
20260507194001 58 270 8.0 18.0 0.00 0.00 0.00 39 1010.6
20260507193813 58 264 7.0 18.0 0.00 0.00 0.00 40 1010.7
20260507193524 58 256 7.0 18.0 0.00 0.00 0.00 42 1010.5
20260507193313 58 256 8.0 18.0 0.00 0.00 0.00 42 1010.6
20260507193002 57 264 8.0 17.0 0.00 0.00 0.00 41 1010.6
20260507192813 57 269 8.0 17.0 0.00 0.00 0.00 41 1010.6
20260507192522 57 272 8.0 17.0 0.00 0.00 0.00 41 1010.6
20260507192313 57 271 8.0 18.0 0.00 0.00 0.00 41 1010.6
20260507192024 57 269 8.0 18.0 0.00 0.00 0.00 41 1010.6
20260507191813 57 265 8.0 18.0 0.00 0.00 0.00 42 1010.7
20260507191502 57 261 7.0 18.0 0.00 0.00 0.00 42 1010.7
20260507191313 57 259 7.0 15.0 0.00 0.00 0.00 41 1010.8
20260507191001 57 255 7.0 15.0 0.00 0.00 0.00 42 1010.8
20260507190813 57 262 8.0 17.0 0.00 0.00 0.00 42 1010.8
20260507190503 57 273 8.0 17.0 0.00 0.00 0.00 44 1010.9
20260507190313 57 275 9.0 17.0 0.00 0.00 0.00 42 1010.9
20260507190022 57 276 10.0 22.0 0.00 0.00 0.00 42 1010.8
20260507185813 57 273 9.0 22.0 0.00 0.00 0.00 41 1010.8
20260507185502 57 268 9.0 22.0 0.00 0.00 0.00 42 1010.9
20260507185313 57 259 7.0 22.0 0.00 0.00 0.00 42 1010.9
20260507185002 57 249 6.0 12.0 0.00 0.00 0.00 42 1010.9
20260507184813 57 251 7.0 19.0 0.00 0.00 0.00 43 1010.9
20260507184502 57 260 8.0 19.0 0.00 0.00 0.00 42 1010.9
20260507184312 57 270 9.0 19.0 0.00 0.00 0.00 42 1010.9
20260507184022 57 280 10.0 19.0 0.00 0.00 0.00 42 1010.9
20260507183812 57 285 8.0 19.0 0.00 0.00 0.00 43 1010.9
20260507183502 58 283 8.0 16.0 0.00 0.00 0.00 42 1010.9
20260507183312 58 280 8.0 16.0 0.00 0.00 0.00 42 1010.9
20260507183002 58 276 8.0 14.0 0.00 0.00 0.00 43 1010.9
20260507182812 58 277 9.0 15.0 0.00 0.00 0.00 43 1010.8
20260507182501 57 274 9.0 15.0 0.00 0.00 0.00 43 1011.0
20260507182312 58 275 9.0 15.0 0.00 0.00 0.00 43 1011.0
20260507182002 58 283 9.0 17.0 0.00 0.00 0.00 43 1011.0
20260507181812 58 283 10.0 17.0 0.00 0.00 0.00 43 1010.9
20260507181502 58 284 10.0 17.0 0.00 0.00 0.00 43 1011.0
20260507181312 58 283 8.0 17.0 0.00 0.00 0.00 43 1010.9
20260507181001 57 266 7.0 15.0 0.00 0.00 0.00 44 1011.0
20260507180812 57 262 7.0 15.0 0.00 0.00 0.00 46 1010.9
20260507180502 56 268 7.0 15.0 0.00 0.00 0.00 44 1010.9
20260507180312 56 270 9.0 15.0 0.00 0.00 0.00 44 1011.0
20260507180002 57 276 9.0 16.0 0.00 0.00 0.00 43 1011.0
20260507175812 57 275 9.0 16.0 0.00 0.00 0.00 43 1010.9
20260507175522 57 269 8.0 16.0 0.00 0.00 0.00 43 1011.0
20260507175312 57 268 9.0 17.0 0.00 0.00 0.00 44 1011.0
20260507175002 57 270 9.0 18.0 0.00 0.00 0.00 45 1011.0
20260507174812 57 271 10.0 18.0 0.00 0.00 0.00 45 1011.1
20260507174502 57 274 10.0 18.0 0.00 0.00 0.00 45 1011.1
20260507174311 57 276 9.0 18.0 0.00 0.00 0.00 46 1011.0
20260507174001 57 275 8.0 17.0 0.00 0.00 0.00 45 1011.1
20260507173811 57 270 7.0 13.0 0.00 0.00 0.00 45 1011.0
20260507173502 57 270 7.0 15.0 0.00 0.00 0.00 45 1011.0
20260507173311 57 263 7.0 15.0 0.00 0.00 0.00 45 1011.1
20260507173002 57 259 7.0 15.0 0.00 0.00 0.00 45 1011.0
20260507172811 57 260 6.0 15.0 0.00 0.00 0.00 44 1011.1
20260507172524 57 258 6.0 16.0 0.00 0.00 0.00 44 1011.1
20260507172311 57 266 7.0 16.0 0.00 0.00 0.00 43 1011.1
20260507172003 57 270 8.0 16.0 0.00 0.00 0.00 44 1011.1
20260507171811 57 274 8.0 16.0 0.00 0.00 0.00 44 1011.1
20260507171502 57 276 8.0 13.0 0.00 0.00 0.00 44 1011.2
20260507171311 57 278 7.0 13.0 0.00 0.00 0.00 44 1011.1
20260507171002 57 281 7.0 13.0 0.00 0.00 0.00 43 1011.1
20260507170811 57 277 7.0 12.0 0.00 0.00 0.00 43 1011.1
20260507170502 57 281 7.0 16.0 0.00 0.00 0.00 43 1011.2
20260507170311 57 277 7.0 16.0 0.00 0.00 0.00 42 1011.1
20260507170022 57 274 8.0 16.0 0.00 0.00 0.00 43 1011.2
20260507165811 57 273 7.0 16.0 0.00 0.00 0.00 43 1011.2
20260507165523 57 265 6.0 13.0 0.00 0.00 0.00 43 1011.2
20260507165311 57 265 5.0 13.0 0.00 0.00 0.00 43 1011.3
20260507165002 57 254 5.0 13.0 0.00 0.00 0.00 44 1011.3
20260507164811 57 258 6.0 14.0 0.00 0.00 0.00 43 1011.3
20260507164502 57 264 6.0 14.0 0.00 0.00 0.00 44 1011.3
20260507164311 57 269 6.0 14.0 0.00 0.00 0.00 43 1011.3
20260507164002 57 278 6.0 14.0 0.00 0.00 0.00 43 1011.4
20260507163810 57 279 5.0 11.0 0.00 0.00 0.00 43 1011.2
20260507163502 57 270 5.0 10.0 0.00 0.00 0.00 43 1011.3
20260507163310 57 261 5.0 10.0 0.00 0.00 0.00 44 1011.4
20260507163002 56 244 4.0 10.0 0.00 0.00 0.00 46 1011.4
20260507162810 56 248 5.0 14.0 0.00 0.00 0.00 46 1011.5
20260507162523 56 246 5.0 14.0 0.00 0.00 0.00 46 1011.4
20260507162310 56 252 6.0 14.0 0.00 0.00 0.00 45 1011.4
20260507162002 57 261 7.0 14.0 0.00 0.00 0.00 44 1011.4
20260507161810 57 259 6.0 14.0 0.00 0.00 0.00 44 1011.4
20260507161522 57 264 6.0 14.0 0.00 0.00 0.00 45 1011.3
20260507161310 56 269 6.0 14.0 0.00 0.00 0.00 45 1011.4
20260507161002 56 280 6.0 14.0 0.00 0.00 0.00 46 1011.5
20260507160810 56 290 6.0 12.0 0.00 0.00 0.00 46 1011.4
20260507160502 56 289 6.0 11.0 0.00 0.00 0.00 45 1011.4
20260507160310 56 279 6.0 11.0 0.00 0.00 0.00 45 1011.4
20260507160001 56 251 5.0 11.0 0.00 0.00 0.00 45 1011.4
20260507155810 56 231 5.0 11.0 0.00 0.00 0.00 46 1011.4
20260507155502 56 221 5.0 12.0 0.00 0.00 0.00 45 1011.4
20260507155310 56 228 5.0 12.0 0.00 0.00 0.00 45 1011.5
20260507155002 56 247 5.0 12.0 0.00 0.00 0.00 45 1011.6
20260507154810 56 253 5.0 12.0 0.00 0.00 0.00 46 1011.5
20260507154502 56 263 5.0 13.0 0.00 0.00 0.00 45 1011.5
20260507154310 56 266 6.0 13.0 0.00 0.00 0.00 45 1011.5
20260507154002 56 260 6.0 13.0 0.00 0.00 0.00 46 1011.4
20260507153810 56 265 6.0 13.0 0.00 0.00 0.00 45 1011.5
20260507153502 56 271 6.0 11.0 0.00 0.00 0.00 45 1011.5
20260507153309 56 274 6.0 11.0 0.00 0.00 0.00 47 1011.5
20260507153002 56 276 7.0 12.0 0.00 0.00 0.00 46 1011.5
20260507152809 56 277 7.0 15.0 0.00 0.00 0.00 50 1011.4
20260507152501 56 272 8.0 15.0 0.00 0.00 0.00 50 1011.5
20260507152309 56 272 8.0 15.0 0.00 0.00 0.00 49 1011.5
20260507152002 56 270 8.0 15.0 0.00 0.00 0.00 50 1011.5
20260507151809 56 261 7.0 15.0 0.00 0.00 0.00 50 1011.6
20260507151502 56 253 6.0 13.0 0.00 0.00 0.00 51 1011.6
20260507151309 55 240 5.0 13.0 0.00 0.00 0.00 52 1011.6
20260507151001 55 229 4.0 11.0 0.00 0.00 0.00 51 1011.6
20260507150809 55 229 3.0 11.0 0.00 0.00 0.00 51 1011.6
20260507150502 55 237 3.0 9.0 0.00 0.00 0.00 53 1011.6
20260507150309 55 263 3.0 9.0 0.00 0.00 0.00 51 1011.6
20260507150002 55 267 4.0 9.0 0.00 0.00 0.00 49 1011.6
20260507145809 55 258 4.0 9.0 0.00 0.00 0.00 49 1011.7
20260507145502 54 247 4.0 9.0 0.00 0.00 0.00 48 1011.7
20260507145309 54 242 4.0 9.0 0.00 0.00 0.00 50 1011.7
20260507145002 54 257 4.0 12.0 0.00 0.00 0.00 51 1011.6
20260507144809 54 268 5.0 12.0 0.00 0.00 0.00 50 1011.7
20260507144502 54 279 5.0 12.0 0.00 0.00 0.00 50 1011.8
20260507144309 54 271 5.0 12.0 0.00 0.00 0.00 50 1011.8
20260507144002 54 267 5.0 9.0 0.00 0.00 0.00 49 1011.8
20260507143809 54 268 5.0 10.0 0.00 0.00 0.00 50 1011.8
20260507143502 54 275 6.0 10.0 0.00 0.00 0.00 49 1011.8
20260507143308 54 287 5.0 10.0 0.00 0.00 0.00 50 1011.9
20260507143002 54 296 4.0 10.0 0.00 0.00 0.00 50 1011.8
20260507142808 54 306 3.0 9.0 0.00 0.00 0.00 50 1011.9
20260507142502 54 301 3.0 8.0 0.00 0.00 0.00 51 1011.8
20260507142308 54 288 3.0 8.0 0.00 0.00 0.00 50 1011.8
20260507142002 55 284 4.0 9.0 0.00 0.00 0.00 48 1011.9
20260507141808 55 274 4.0 9.0 0.00 0.00 0.00 49 1011.9
20260507141502 55 272 4.0 9.0 0.00 0.00 0.00 51 1012.0
20260507141308 55 282 3.0 9.0 0.00 0.00 0.00 50 1012.0
20260507141002 55 290 2.0 8.0 0.00 0.00 0.00 51 1011.9
20260507140808 55 285 2.0 8.0 0.00 0.00 0.00 56 1012.0
20260507140502 55 293 2.0 7.0 0.00 0.00 0.00 55 1012.0
20260507140308 55 289 2.0 7.0 0.00 0.00 0.00 56 1012.1
20260507140003 54 282 2.0 7.0 0.00 0.00 0.00 56 1012.2
20260507135808 54 295 2.0 8.0 0.00 0.00 0.00 50 1012.1
20260507135523 54 280 2.0 8.0 0.00 0.00 0.00 50 1012.2
20260507135308 54 267 3.0 8.0 0.00 0.00 0.00 50 1012.1
20260507135002 54 264 3.0 8.0 0.00 0.00 0.00 49 1012.2
20260507134808 54 256 2.0 7.0 0.00 0.00 0.00 51 1012.2
20260507134503 54 264 2.0 6.0 0.00 0.00 0.00 51 1012.3
20260507134308 53 286 2.0 6.0 0.00 0.00 0.00 52 1012.3
20260507134023 53 304 2.0 5.0 0.00 0.00 0.00 50 1012.3
20260507133808 53 308 2.0 5.0 0.00 0.00 0.00 51 1012.3
20260507133502 53 314 3.0 6.0 0.00 0.00 0.00 50 1012.3
20260507133307 53 307 3.0 7.0 0.00 0.00 0.00 51 1012.4
20260507133023 53 300 3.0 7.0 0.00 0.00 0.00 51 1012.3
20260507132807 54 293 3.0 7.0 0.00 0.00 0.00 50 1012.3
20260507132502 54 276 3.0 7.0 0.00 0.00 0.00 54 1012.3
20260507132308 53 277 2.0 6.0 0.00 0.00 0.00 55 1012.4
20260507132002 53 280 2.0 6.0 0.00 0.00 0.00 56 1012.4
20260507131807 53 281 2.0 6.0 0.00 0.00 0.00 57 1012.3
20260507131523 52 279 2.0 6.0 0.00 0.00 0.00 57 1012.3
20260507131307 52 276 3.0 6.0 0.00 0.00 0.00 58 1012.3
20260507131003 52 277 3.0 6.0 0.00 0.00 0.00 59 1012.3
20260507130807 51 280 2.0 6.0 0.00 0.00 0.00 62 1012.4
20260507130523 51 283 2.0 6.0 0.00 0.00 0.00 61 1012.4
20260507130307 50 279 2.0 6.0 0.00 0.00 0.00 63 1012.3
20260507130002 50 271 2.0 4.0 0.00 0.00 0.00 63 1012.3
20260507125807 50 263 2.0 4.0 0.00 0.00 0.00 63 1012.3
20260507125503 50 260 2.0 4.0 0.00 0.00 0.00 64 1012.3
20260507125307 49 260 2.0 4.0 0.00 0.00 0.00 64 1012.3
20260507125023 49 260 2.0 6.0 0.00 0.00 0.00 66 1012.4
20260507124807 49 259 3.0 6.0 0.00 0.00 0.00 66 1012.4
20260507124502 48 257 3.0 6.0 0.00 0.00 0.00 67 1012.3
20260507124307 48 254 3.0 6.0 0.00 0.00 0.00 68 1012.5
20260507124003 48 250 2.0 6.0 0.00 0.00 0.00 68 1012.4
20260507123807 48 245 2.0 6.0 0.00 0.00 0.00 69 1012.5
20260507123502 47 241 2.0 4.0 0.00 0.00 0.00 71 1012.4
20260507123307 47 241 2.0 4.0 0.00 0.00 0.00 71 1012.4
20260507123002 47 241 2.0 3.0 0.00 0.00 0.00 73 1012.4
20260507122807 46 241 2.0 3.0 0.00 0.00 0.00 73 1012.4
20260507122503 46 240 2.0 4.0 0.00 0.00 0.00 74 1012.4
20260507122307 46 240 2.0 4.0 0.00 0.00 0.00 74 1012.4
20260507122002 46 240 2.0 4.0 0.00 0.00 0.00 76 1012.4
20260507121806 46 240 2.0 4.0 0.00 0.00 0.00 77 1012.4
20260507121502 45 240 2.0 4.0 0.00 0.00 0.00 77 1012.4
20260507121306 45 240 1.0 4.0 0.00 0.00 0.00 79 1012.4
20260507121002 44 240 1.0 3.0 0.00 0.00 0.00 79 1012.4
20260507120806 44 240 1.0 2.0 0.00 0.00 0.00 79 1012.4
20260507120502 44 240 1.0 2.0 0.00 0.00 0.00 81 1012.4
20260507120306 44 240 1.0 3.0 0.00 0.00 0.00 81 1012.4
20260507120002 43 240 1.0 3.0 0.00 0.00 0.00 81 1012.4
20260507115806 43 240 2.0 3.0 0.00 0.00 0.00 81 1012.4
20260507115503 43 240 2.0 3.0 0.00 0.00 0.00 82 1012.4
20260507115307 42 240 2.0 3.0 0.00 0.00 0.00 82 1012.3
20260507115002 42 240 1.0 3.0 0.00 0.00 0.00 82 1012.3
20260507114806 42 240 1.0 3.0 0.00 0.00 0.00 82 1012.4
20260507114502 42 240 1.0 3.0 0.00 0.00 0.00 82 1012.3
20260507114306 42 240 2.0 3.0 0.00 0.00 0.00 82 1012.3
20260507114003 41 240 2.0 3.0 0.00 0.00 0.00 83 1012.3
20260507113806 41 240 1.0 3.0 0.00 0.00 0.00 82 1012.3
20260507113502 41 240 1.0 3.0 0.00 0.00 0.00 82 1012.3
20260507113306 41 240 1.0 2.0 0.00 0.00 0.00 82 1012.3
20260507113003 41 240 1.0 2.0 0.00 0.00 0.00 82 1012.3
20260507112806 41 240 1.0 2.0 0.00 0.00 0.00 83 1012.3
20260507112503 41 240 1.0 2.0 0.00 0.00 0.00 83 1012.3
20260507112307 40 240 1.0 2.0 0.00 0.00 0.00 83 1012.2
20260507112002 40 240 2.0 3.0 0.00 0.00 0.00 83 1012.3
20260507111806 40 240 2.0 3.0 0.00 0.00 0.00 83 1012.1
20260507111503 40 240 2.0 3.0 0.00 0.00 0.00 83 1012.2
20260507111305 40 240 2.0 3.0 0.00 0.00 0.00 83 1012.1
20260507111003 40 240 2.0 3.0 0.00 0.00 0.00 83 1012.1
20260507110805 40 240 2.0 3.0 0.00 0.00 0.00 83 1012.1
20260507110523 40 240 1.0 3.0 0.00 0.00 0.00 82 1012.1
20260507110305 40 240 1.0 2.0 0.00 0.00 0.00 82 1011.9
20260507110002 40 240 1.0 2.0 0.00 0.00 0.00 82 1011.9
20260507105805 40 240 1.0 2.0 0.00 0.00 0.00 82 1012.0
20260507105502 40 240 1.0 2.0 0.00 0.00 0.00 82 1012.0
20260507105307 40 240 1.0 2.0 0.00 0.00 0.00 82 1012.1
20260507105003 40 240 1.0 2.0 0.00 0.00 0.00 81 1012.0
20260507104805 40 240 1.0 2.0 0.00 0.00 0.00 81 1012.0
20260507104502 40 240 1.0 2.0 0.00 0.00 0.00 81 1012.0
20260507104305 40 240 1.0 2.0 0.00 0.00 0.00 81 1012.0
20260507104002 40 240 1.0 2.0 0.00 0.00 0.00 81 1012.0
20260507103805 40 240 1.0 2.0 0.00 0.00 0.00 81 1012.0
20260507103503 40 240 1.0 2.0 0.00 0.00 0.00 81 1012.0
20260507103305 40 240 0.0 2.0 0.00 0.00 0.00 81 1011.9
20260507103003 40 240 1.0 2.0 0.00 0.00 0.00 81 1011.9
20260507102805 40 240 1.0 2.0 0.00 0.00 0.00 81 1011.9
20260507102502 41 240 1.0 3.0 0.00 0.00 0.00 81 1011.8
20260507102307 41 240 1.0 3.0 0.00 0.00 0.00 81 1011.9
20260507102003 41 240 1.0 3.0 0.00 0.00 0.00 81 1011.9
20260507101805 41 240 1.0 3.0 0.00 0.00 0.00 80 1012.0
20260507101503 41 240 1.0 3.0 0.00 0.00 0.00 80 1011.8
20260507101305 41 240 2.0 4.0 0.00 0.00 0.00 80 1011.8
20260507101002 41 240 2.0 4.0 0.00 0.00 0.00 79 1011.8
20260507100805 41 240 2.0 4.0 0.00 0.00 0.00 79 1011.8
20260507100503 41 240 1.0 4.0 0.00 0.00 0.00 79 1011.8
20260507100305 41 240 1.0 4.0 0.00 0.00 0.00 79 1011.8
20260507100023 41 238 0.0 4.0 0.00 0.00 0.00 78 1011.8
20260507095804 41 0 0.0 0.0 0.00 0.00 0.00 78 1011.8
20260507095502 41 0 0.0 0.0 0.00 0.00 0.00 78 1011.7
20260507095306 41 0 0.0 0.0 0.00 0.00 0.00 78 1011.7
20260507095003 41 0 0.0 0.0 0.00 0.00 0.00 77 1011.7
20260507094804 42 0 0.0 0.0 0.00 0.00 0.00 77 1011.6
20260507094503 42 0 0.0 0.0 0.00 0.00 0.00 77 1011.7
20260507094304 42 0 0.0 0.0 0.00 0.00 0.00 77 1011.7
20260507094002 42 0 0.0 0.0 0.00 0.00 0.00 77 1011.7
20260507093804 42 0 0.0 0.0 0.00 0.00 0.00 77 1011.7
20260507093502 42 0 0.0 0.0 0.00 0.00 0.00 76 1011.7
20260507093304 42 0 0.0 0.0 0.00 0.00 0.00 76 1011.7
20260507093003 42 0 0.0 0.0 0.00 0.00 0.00 76 1011.6
20260507092804 42 0 0.0 0.0 0.00 0.00 0.00 76 1011.6
20260507092502 42 0 0.0 0.0 0.00 0.00 0.00 76 1011.7
20260507092307 42 0 0.0 0.0 0.00 0.00 0.00 76 1011.9
20260507092024 42 0 0.0 0.0 0.00 0.00 0.00 76 1011.8
20260507091804 42 0 0.0 0.0 0.00 0.00 0.00 76 1011.9
20260507091503 42 0 0.0 0.0 0.00 0.00 0.00 75 1011.9
20260507091304 42 0 0.0 0.0 0.00 0.00 0.00 75 1011.8
20260507091002 42 0 0.0 0.0 0.00 0.00 0.00 75 1011.8
20260507090804 42 0 0.0 0.0 0.00 0.00 0.00 75 1011.9
20260507090502 42 0 0.0 0.0 0.00 0.00 0.00 75 1012.0
20260507090304 42 0 0.0 0.0 0.00 0.00 0.00 75 1011.8
20260507090002 42 0 0.0 0.0 0.00 0.00 0.00 75 1011.9
20260507085804 42 198 0.0 2.0 0.00 0.00 0.00 75 1012.0
20260507085503 42 198 0.0 2.0 0.00 0.00 0.00 75 1012.1
20260507085306 42 198 0.0 2.0 0.00 0.00 0.00 75 1012.1
20260507085002 42 198 0.0 2.0 0.00 0.00 0.00 74 1012.0
20260507084804 42 198 0.0 1.0 0.00 0.00 0.00 74 1012.0
20260507084503 42 198 0.0 2.0 0.00 0.00 0.00 74 1012.1
20260507084303 42 198 1.0 2.0 0.00 0.00 0.00 74 1012.0
20260507084004 42 197 1.0 3.0 0.00 0.00 0.00 74 1012.1
20260507083803 42 197 2.0 3.0 0.00 0.00 0.00 73 1012.1
20260507083503 42 196 2.0 3.0 0.00 0.00 0.00 74 1012.1
20260507083303 42 196 2.0 3.0 0.00 0.00 0.00 74 1012.0
20260507083002 43 195 2.0 3.0 0.00 0.00 0.00 74 1011.9
20260507082803 43 195 2.0 3.0 0.00 0.00 0.00 74 1011.9
20260507082523 43 195 2.0 3.0 0.00 0.00 0.00 74 1012.0
20260507082306 43 195 2.0 3.0 0.00 0.00 0.00 74 1012.0
20260507082002 43 195 2.0 3.0 0.00 0.00 0.00 73 1011.9
20260507081803 43 195 2.0 3.0 0.00 0.00 0.00 73 1012.0
20260507081503 43 195 2.0 3.0 0.00 0.00 0.00 73 1012.0
20260507081303 43 195 1.0 3.0 0.00 0.00 0.00 73 1012.0
20260507081002 43 195 1.0 2.0 0.00 0.00 0.00 73 1011.9
20260507080803 43 193 1.0 3.0 0.00 0.00 0.00 73 1011.9
20260507080502 43 188 2.0 3.0 0.00 0.00 0.00 73 1011.9
20260507080303 43 185 2.0 3.0 0.00 0.00 0.00 73 1011.8
20260507080023 43 182 2.0 3.0 0.00 0.00 0.00 73 1011.9
20260507075803 43 180 2.0 3.0 0.00 0.00 0.00 73 1012.0
20260507075524 43 180 2.0 3.0 0.00 0.00 0.00 74 1012.0
20260507075306 43 179 2.0 3.0 0.00 0.00 0.00 73 1011.9
20260507075003 43 179 2.0 3.0 0.00 0.00 0.00 75 1011.9
20260507074803 43 179 1.0 3.0 0.00 0.00 0.00 75 1011.9
20260507074524 43 179 1.0 3.0 0.00 0.00 0.00 75 1011.9
20260507074303 43 179 1.0 3.0 0.00 0.00 0.00 76 1011.9
20260507074023 44 179 1.0 2.0 0.00 0.00 0.00 75 1011.8
20260507073803 44 179 1.0 2.0 0.00 0.00 0.00 76 1011.8
20260507073503 44 179 1.0 2.0 0.00 0.00 0.00 76 1011.8
20260507073302 44 179 1.0 2.0 0.00 0.00 0.00 76 1011.9
20260507073003 44 179 1.0 2.0 0.00 0.00 0.00 76 1011.9
20260507072802 44 179 1.0 2.0 0.00 0.00 0.00 77 1011.9
20260507072502 44 179 1.0 3.0 0.00 0.00 0.00 77 1011.9
20260507072306 44 179 1.0 3.0 0.00 0.00 0.00 77 1011.8
20260507072003 44 179 1.0 3.0 0.00 0.00 0.00 78 1011.8
20260507071802 44 179 2.0 3.0 0.00 0.00 0.00 79 1011.7
20260507071503 44 179 2.0 3.0 0.00 0.00 0.00 79 1011.9
20260507071302 44 179 2.0 3.0 0.00 0.00 0.00 80 1011.9
20260507071002 44 179 1.0 3.0 0.00 0.00 0.00 81 1011.9
20260507070802 44 179 1.0 3.0 0.00 0.00 0.00 81 1011.9
20260507070503 45 179 0.0 3.0 0.00 0.00 0.00 81 1011.9
20260507070302 45 178 0.0 2.0 0.00 0.00 0.00 81 1011.9
20260507070004 45 0 0.0 0.0 0.00 0.00 0.00 81 1011.8
20260507065802 45 0 0.0 0.0 0.00 0.00 0.00 81 1011.9
20260507065503 45 0 0.0 0.0 0.00 0.00 0.00 81 1011.9
20260507065305 45 0 0.0 0.0 0.00 0.00 0.00 81 1011.8
20260507065002 45 0 0.0 0.0 0.00 0.00 0.00 81 1011.9
20260507064802 45 0 0.0 0.0 0.00 0.00 0.00 80 1011.8
20260507064503 45 0 0.0 0.0 0.00 0.00 0.00 80 1011.8
20260507064302 46 0 0.0 0.0 0.00 0.00 0.00 80 1011.9
20260507064003 46 178 0.0 1.0 0.00 0.00 0.00 80 1011.8
20260507063802 46 178 0.0 1.0 0.00 0.00 0.00 80 1011.8
20260507063502 46 178 0.0 1.0 0.00 0.00 0.00 80 1011.9
20260507063302 46 178 0.0 1.0 0.00 0.00 0.00 80 1011.9
20260507063003 46 178 0.0 1.0 0.00 0.00 0.00 80 1011.9
20260507062801 46 178 0.0 1.0 0.00 0.00 0.00 80 1011.9
20260507062503 46 178 0.0 1.0 0.00 0.00 0.00 80 1011.9
20260507062305 46 178 0.0 1.0 0.00 0.00 0.00 80 1011.8
20260507062003 46 0 0.0 0.0 0.00 0.00 0.00 80 1011.9
20260507061801 46 178 0.0 1.0 0.00 0.00 0.00 80 1011.8
20260507061503 46 178 0.0 1.0 0.00 0.00 0.00 80 1011.8
20260507061301 46 178 0.0 1.0 0.00 0.00 0.00 80 1011.9
20260507061024 46 178 0.0 1.0 0.00 0.00 0.00 80 1011.8
20260507060801 47 178 0.0 1.0 0.00 0.00 0.00 80 1012.0
20260507060503 47 178 0.0 1.0 0.00 0.00 0.00 80 1012.0
20260507060301 47 0 0.0 0.0 0.00 0.00 0.00 79 1011.9
20260507060003 47 0 0.0 0.0 0.00 0.00 0.00 79 1011.9
20260507055801 47 0 0.0 0.0 0.00 0.00 0.00 79 1011.9
20260507055503 47 0 0.0 0.0 0.00 0.00 0.00 80 1012.0
20260507055301 47 0 0.0 0.0 0.00 0.00 0.00 79 1012.0
20260507055004 47 0 0.0 0.0 0.00 0.00 0.00 79 1012.0
20260507054801 47 0 0.0 0.0 0.00 0.00 0.00 79 1012.0
20260507054503 47 178 0.0 1.0 0.00 0.00 0.00 79 1012.0
20260507054301 47 178 0.0 1.0 0.00 0.00 0.00 79 1011.9
20260507054024 47 178 0.0 1.0 0.00 0.00 0.00 79 1012.0
20260507053801 47 178 0.0 1.0 0.00 0.00 0.00 79 1012.0
20260507053503 47 178 0.0 2.0 0.00 0.00 0.00 79 1012.0
20260507053301 47 178 0.0 2.0 0.00 0.00 0.00 79 1012.1
20260507053003 47 178 0.0 2.0 0.00 0.00 0.00 79 1012.0
20260507052801 47 178 0.0 2.0 0.00 0.00 0.00 79 1012.1
20260507052502 47 178 0.0 1.0 0.00 0.00 0.00 79 1012.0
20260507052300 47 178 1.0 3.0 0.00 0.00 0.00 79 1012.1
20260507052003 48 178 1.0 3.0 0.00 0.00 0.00 79 1012.2
20260507051800 48 178 1.0 3.0 0.00 0.00 0.00 79 1012.2
20260507051503 48 178 1.0 3.0 0.00 0.00 0.00 79 1012.2
20260507051300 48 178 1.0 2.0 0.00 0.00 0.00 79 1012.2
20260507051003 48 178 1.0 3.0 0.00 0.00 0.00 79 1012.2
20260507050800 48 178 1.0 3.0 0.00 0.00 0.00 79 1012.1
20260507050503 48 178 1.0 3.0 0.00 0.00 0.00 79 1012.3
20260507050300 48 178 1.0 3.0 0.00 0.00 0.00 79 1012.2